Regional Weather Roundup
Issued by NWS Jackson, KY

Home | Current Version | Previous Version | Text Only | Print | Product List | Glossary On
Versions: 1 2 3 4 5 6 7 8 9 10 11 12 13 14 15 16 17 18 19 20 21 22 23 24 25 26 27 28 29 30 31 32 33 34 35 36 37 38 39 40 41 42 43 44 45 46 47 48 49 50
000
ASUS43 KJKL 171410
RWRJKL

EAST KENTUCKY HOURLY WEATHER ROUNDUP
NATIONAL WEATHER SERVICE JACKSON KY
1000 AM EDT THU AUG 17 2017

NOTE: "FAIR" INDICATES FEW OR NO CLOUDS BELOW 12,000 FEET WITH
NO SIGNIFICANT WEATHER AND/OR OBSTRUCTIONS TO VISIBILITY.

* THESE REPORTS ARE NOT UNDER NWS QUALITY CONTROL AND MAY NOT
  REPORT WEATHER SUCH AS PRECIPITATION AND FOG.

KYZ079-080-083-085-087-088-110-112-115-119-120-171500
...EASTERN KENTUCKY...

CITY           SKY/WX    TMP DP  RH WIND       PRES   REMARKS
JACKSON        MOSUNNY   78  73  84 VRB3      30.06S
LONDON         MOSUNNY   80  72  76 W9        30.06S
SOMERSET*      CLOUDY    77  75  94 W12       30.06S
MONTICELLO*    CLOUDY    80  74  81 W14       30.07S
WILLIAMSBURG*  MOSUNNY   81  75  83 SW7       30.07S
MIDDLESBORO*   MOSUNNY   79  74  84 CALM      30.09S
HARLAN APT*    CLOUDY    75  70  83 CALM      30.10S
PIKE CO APT*   PTSUNNY   76  76  99 S3        30.08S
BIG SANDY APT* SUNNY     79  74  86 SW5       30.06S
MOREHEAD APT*  MOSUNNY   81  75  83 S8G14     30.04S
$$

KYZ035-036-041-042-044-050-067-078-099-171500
...CENTRAL KENTUCKY...

CITY           SKY/WX    TMP DP  RH WIND       PRES   REMARKS
MT STERLING*   PTSUNNY   79  73  83 W8        30.03F
FLEMING/MASON* PTSUNNY   80  75  85 SW6       30.02S
DANVILLE*      CLOUDY    79  73  83 W8        30.04F
LEXINGTON      CLOUDY    80  74  81 SW9       30.01F
FRANKFORT      MOSUNNY   80  74  81 SW13      29.98F
LOUISVILLE     MOSUNNY   83  74  74 S12       29.95F
LEBANON*         N/A     81  73  78 S9G16     30.01F
GLASGOW*       MOSUNNY   81  73  78 S8        30.01F
BOWLING GREEN  SUNNY     82  75  79 SW10      29.99F
$$

KYZ091>093-OHZ055-061-077-WVZ005-015-034-035-042-171500
...SOUTHERN OHIO/WEST VIRGINIA...

CITY           SKY/WX    TMP DP  RH WIND       PRES   REMARKS
COVINGTON      MOSUNNY   81  77  88 S12       29.96F
COLUMBUS       CLOUDY    76  75  97 SE5       29.96F
DAYTON         MOSUNNY   79  73  82 SW13      29.95F
WILMINGTON     PTSUNNY   80  76  87 SW10      29.97F
HUNTINGTON     MOSUNNY   80  73  79 SW7       30.02S
CHARLESTON     MOSUNNY   80  72  76 S6        30.04S
PINEVILLE*     MOSUNNY   77  71  79 MISG      30.15S
BECKLEY        PTSUNNY   75  69  81 SW7       30.14S
BLUEFIELD      MOSUNNY   75  68  78 W7        30.17S
LOGAN CO APT*  PTSUNNY   77  72  83 S5        30.08S
$$

VAZ002-007-008-TNZ017-027-036-066-071-171500
...SOUTHWEST VIRGINIA/EAST TENNESSEE...

CITY           SKY/WX    TMP DP  RH WIND       PRES   REMARKS
WISE*          CLOUDY    73  73 100 SW13      30.17S
ABINGDON*      PTSUNNY   77  74  91 SW6       30.14F
BRISTOL        MOSUNNY   76  72  87 SE3       30.11F
MORRISTOWN*    CLOUDY    79  73  83 SW6       30.09S
SEVIERVILLE*   PTSUNNY   77  70  78 NW3       30.09S
KNOXVILLE      CLOUDY    77  73  87 S8        30.08S
OAK RIDGE      CLOUDY    79  73  82 VRB3      30.09S
CROSSVILLE     PTSUNNY   76  70  82 W8        30.13S
NASHVILLE      MOSUNNY   82  73  74 S6        30.03F
$$

...KEY TO REMARKS...
VSB - VISIBILITY IN MILES
WCI - WIND CHILL INDEX
HX  - HEAT INDEX

$$



USA.gov is the U.S. government's official web portal to all federal, state and local government web resources and services.